Showing default

STRIX-3, 59224

Orbit data source: Space-Track

STRIX-3, 59224 is a payload satellite owned by Synspective (JP) in SSO that was launched on Tue, 12 Mar 2024 UTC via an ELECTRON launch vehicle from the Rocket Lab Launch Complex (RLLC). Payload-class satellites include a variety of spacecraft equipped with specific instruments for various scientific and technological missions. These include communications satellites like Starlink; space stations such as the ISS; scientific satellites like the Hubble; Earth observation satellites from companies like Planet Labs, Umbra, and HawkEye 360; GPS; miniature CubeSats for education and research; and military/defense satellites.

Loading next visibility...
Identifier
59224, 2024-047A
Orbit
SSO
Country
Flag of JPJP / JPN
Related business
Manufacturer
Synspective
Mission
Operational Commercial Radar Imaging
Bus & Motor
STRIX, Unknown motor
Mass
150 kg wet, 150 kg dry
Launch date (UTC)
2024-03-12 (2 years ago)
Launch vehicle
ELECTRON
Launch site
Rocket Lab Launch Complex (RLLC)
Object type
Payload
Rocket body
Debris
Shape & HBR
Box + 2 Pan, 1.0 m
Radar Cross Section
1.052 m², Medium (>0.1 m² and < 1m²)

Expand to show TLE details & history
Last TLE update: 22 hours ago

TLE from 22 hours ago
0 STRIX-3
1 59224U 24047A   26172.52495265  .00007099  00000-0  33741-3 0  9991
2 59224  97.6626 148.2640 0014849  53.8366 306.4240 15.19433149125403
Epoch: 2026-06-21T12:35Z
TLE epoch observation values (Epoch: 2026-06-21T12:35:55.908Z)
Latitude
0.00001°
Longitude
49.55707°
Altitude
504.572 km
Speed
7.615 km/s
True Right ascension
09h 53m 03s
True Declination
0° 00' 00"
Sunlit
Object was in daylight at epoch
Visualization orbit readout
Latitude
Unknown
Longitude
Unknown
Altitude
Unknown
Speed
Unknown
Apparent Right ascension
Unknown
Apparent Declination
Unknown
Sunlit
N/A
Visualization observer readout
Local Sidereal Time
21:31:11
Azimuth
Unknown
Elevation
Unknown
Doppler factor
Unknown
Orbital elements
Apogee altitude
514.75 km
Perigee altitude
494.31 km
Semi-major axis
6,882.667 km
Eccentricity
0.00148
Inclination
97.6626°
RAAN
148.264°
Arg. of periapsis
53.8366°
True anomaly
306.28693°
Mean anomaly
306.424°
Eccentric anomaly
306.35548°
Mean motion
3.80109 °/min
Orbital period
94.71 mins
BSTAR
0.00033741
Loading maneuver chart data...
Computing Atmospheric mass density...
Loading historical data...
Loading historical data...
Loading historical data...
Loading historical data...
Loading historical data...
Loading historical data...
Loading historical data...
Other satellites on launch #47 in the year 2024 (2024-03-12 UTC)

Documentation

Showing up to 5 results
|